Quillayute, WA
on Wednesday, November 28, 2012

Wednesday
Previous Day Next Day
Daily Summary
 ActualAverageRecord
Temperature
Mean Temperature °F 42°F  
Max Temperature 54°F 48°F 60°F (2002)
Min Temperature 41°F 36°F 21°F (1985)
Degree Days
Heating Degree Days 17 23  
Month to date heating degree days 578  
Since 1 July heating degree days 1668  
Cooling Degree Days 0 0  
Month to date cooling degree days 0  
Year to date cooling degree days 19  
Moisture
Dew Point 46°F   
Average Humidity 87    
Maximum Humidity 96    
Minimum Humidity 72    
Precipitation
Precipitation 0.24 in 0.52 in 6.03 in (2003)
Month to date precipitation 14.47  
Year to date precipitation 85.50  
Wind
Wind Speed 9 mph   
Max Wind Speed 21 mph   
Max Gust Speed 40 mph   
Visibility 4 miles   
Events Rain   

Key: T is trace of precipitation, MM is missing value
Source: NWS Daily Summary
Time(PST)TemperatureDew PointHumidity Pressure Visibility Wind DirectionWind SpeedGust SpeedPrecipitationEvents Conditions
12:53 AM 43.0°F 39.0°F 86% 29.84 in 6.0 miles East 5.8 mph - N/A   Clear
1:53 AM 43.0°F 39.0°F 86% 29.82 in 6.0 miles ENE 3.5 mph - N/A   Clear
2:53 AM 42.1°F 37.9°F 85% 29.80 in 6.0 miles East 3.5 mph - N/A   Clear
3:53 AM 42.8°F 37.4°F 81% 29.75 in 6.0 miles East 4.6 mph - N/A   Clear
4:53 AM 44.1°F 37.9°F 79% 29.73 in 7.0 miles East 3.5 mph - N/A   Mostly Cloudy
5:53 AM 45.0°F 37.9°F 76% 29.71 in 7.0 miles East 4.6 mph - N/A   Overcast
6:53 AM 45.0°F 37.9°F 76% 29.67 in 4.0 miles NE 10.4 mph - 0.00 in Rain Light Rain
7:53 AM 44.1°F 41.0°F 89% 29.65 in 4.0 miles Variable 5.8 mph - 0.02 in Rain Light Rain
8:53 AM 44.1°F 42.1°F 93% 29.64 in 4.0 miles East 3.5 mph - 0.01 in Rain Light Rain
9:53 AM 46.0°F 44.1°F 93% 29.60 in 4.0 miles East 4.6 mph - 0.02 in Rain Light Rain
10:53 AM 46.9°F 45.0°F 93% 29.57 in 5.0 miles ENE 8.1 mph - 0.01 in Rain Light Rain
11:53 AM 48.0°F 45.0°F 89% 29.50 in 5.0 miles East 5.8 mph - 0.00 in   Overcast
12:53 PM 48.0°F 46.0°F 93% 29.49 in 5.0 miles ENE 6.9 mph - 0.00 in   Overcast
1:41 PM 53.6°F 44.6°F 72% 29.49 in 1.8 miles SSE 8.1 mph - 0.00 in Rain Light Rain
1:53 PM 53.1°F 48.0°F 83% 29.49 in 2.5 miles SSE 5.8 mph 18.4 mph 0.02 in Rain Light Rain
2:06 PM 53.6°F 48.2°F 82% 29.48 in 4.0 miles SE 11.5 mph 17.3 mph 0.00 in Rain Light Rain
2:32 PM 51.8°F 48.2°F 88% 29.48 in 2.0 miles SE 9.2 mph 16.1 mph 0.01 in Rain Light Rain
2:53 PM 52.0°F 48.9°F 89% 29.48 in 2.0 miles ESE 10.4 mph 17.3 mph 0.04 in Rain Light Rain
3:05 PM 51.8°F 48.2°F 88% 29.48 in 5.0 miles SE 10.4 mph - 0.00 in Rain Light Rain
3:53 PM 53.1°F 48.0°F 83% 29.49 in 5.0 miles SSE 15.0 mph 33.4 mph 0.00 in   Haze
4:10 PM 53.6°F 48.2°F 82% 29.48 in 1.8 miles SE 15.0 mph 25.3 mph 0.00 in Rain Light Rain
4:18 PM 51.8°F 48.2°F 88% 29.49 in 1.0 miles SSE 16.1 mph 29.9 mph 0.01 in Rain Light Rain
4:31 PM 51.8°F 48.2°F 88% 29.49 in 2.0 miles SSE 13.8 mph 31.1 mph 0.02 in Rain Light Rain
4:41 PM 51.8°F 48.2°F 88% 29.49 in 3.0 miles SSE 15.0 mph 27.6 mph 0.02 in Rain Light Rain
4:53 PM 52.0°F 48.9°F 89% 29.49 in 4.0 miles SSE 13.8 mph 29.9 mph 0.03 in Rain Light Rain
5:11 PM 51.8°F 48.2°F 88% 29.49 in 2.0 miles SSE 12.7 mph 33.4 mph 0.01 in Rain Light Rain
5:35 PM 51.8°F 48.2°F 88% 29.49 in 6.0 miles SSE 15.0 mph 40.3 mph 0.02 in   Overcast
5:53 PM 52.0°F 48.9°F 89% 29.50 in 5.0 miles SSE 15.0 mph 28.8 mph 0.02 in Rain Light Rain
6:53 PM 52.0°F 50.0°F 93% 29.53 in 4.0 miles South 13.8 mph 26.5 mph 0.01 in Rain Light Rain
7:02 PM 51.8°F 50.0°F 94% 29.53 in 2.5 miles South 10.4 mph 28.8 mph 0.00 in Rain Light Rain
7:16 PM 51.8°F 50.0°F 94% 29.54 in 1.5 miles South 10.4 mph 28.8 mph 0.01 in Rain Light Rain
7:33 PM 51.8°F 50.0°F 94% 29.55 in 3.0 miles South 9.2 mph 26.5 mph 0.03 in Rain Light Rain
7:53 PM 51.1°F 50.0°F 96% 29.57 in 5.0 miles South 13.8 mph 24.2 mph 0.03 in   Overcast
8:07 PM 51.8°F 48.2°F 88% 29.57 in 5.0 miles South 12.7 mph 27.6 mph N/A   Overcast
8:30 PM 51.8°F 48.2°F 88% 29.57 in 4.0 miles SSE 11.5 mph 24.2 mph N/A   Overcast
8:53 PM 53.1°F 50.0°F 89% 29.57 in 4.0 miles South 13.8 mph 36.8 mph N/A   Overcast
9:15 PM 53.6°F 50.0°F 88% 29.57 in 4.0 miles SSE 12.7 mph 27.6 mph N/A   Overcast
9:53 PM 54.0°F 50.0°F 86% 29.57 in 4.0 miles South 10.4 mph 25.3 mph N/A   Overcast
10:44 PM 51.8°F 50.0°F 94% 29.58 in 1.8 miles South 15.0 mph 25.3 mph 0.01 in Rain Rain
10:53 PM 53.1°F 50.0°F 89% 29.58 in 2.5 miles SSE 15.0 mph 29.9 mph 0.02 in Rain Light Rain
11:00 PM 51.8°F 50.0°F 94% 29.57 in 5.0 miles South 11.5 mph 26.5 mph 0.01 in   Overcast
11:45 PM 51.8°F 50.0°F 94% 29.58 in 2.5 miles SSE 15.0 mph 31.1 mph 0.01 in Rain Light Rain
11:53 PM 52.0°F 50.0°F 93% 29.58 in 3.0 miles SSE 16.1 mph 28.8 mph 0.01 in Rain Light Rain
Moon Phase
Nov. 28 Dec. 06 Dec. 13 Dec. 20 Dec. 28
Sunrise:07:43 AM (PST) Moon Rise:04:47 PM (PST)11/28
Sunset:04:28 PM (PST) Moon Set:07:46 AM (PST)11/28

Copyright © 2014 The Weather Underground, Inc.